• In Czech Republic
  • List of Countries
  • For 7 days
  • Water Temperature
  • Satellite Maps
  • Weather Map
  • Weather Widgets
  • user-avatar
    Login

    Hourly Weather Kostanaj

    Today, 26 September, Wednesday

    Time Temperature Precipitation Wind Pressure Humidity
    00:00 +14°C° 0 mm 4 mps 754 mmHg 54%
    01:00 +13°C° 0 mm 4 mps 754 mmHg 54%
    02:00 +13°C° 0 mm 4 mps 754 mmHg 55%
    03:00 +13°C° 0 mm 4 mps 754 mmHg 55%
    04:00 +12°C° 0 mm 4 mps 754 mmHg 56%
    05:00 +12°C° 0 mm 4 mps 754 mmHg 56%
    06:00 +13°C° 0 mm 4 mps 754 mmHg 56%
    07:00 +13°C° 0 mm 4 mps 755 mmHg 57%
    08:00 +15°C° 0 mm 4 mps 755 mmHg 51%
    09:00 +17°C° 0 mm 5 mps 755 mmHg 45%
    10:00 +20°C° 0 mm 5 mps 755 mmHg 40%
    11:00 +21°C° 0 mm 5 mps 754 mmHg 38%
    12:00 +22°C° 0 mm 6 mps 754 mmHg 36%
    13:00 +23°C° 0 mm 6 mps 754 mmHg 34%
    14:00 +22°C° 0 mm 5 mps 754 mmHg 35%
    15:00 +22°C° 0 mm 5 mps 754 mmHg 36%
    16:00 +22°C° 0 mm 4 mps 754 mmHg 38%
    17:00 +20°C° 0 mm 4 mps 754 mmHg 41%
    18:00 +19°C° 0 mm 4 mps 754 mmHg 44%
    19:00 +17°C° 0 mm 3 mps 754 mmHg 47%
    20:00 +17°C° 0 mm 4 mps 754 mmHg 47%
    21:00 +15°C° 0 mm 4 mps 754 mmHg 47%
    22:00 +15°C° 0 mm 4 mps 753 mmHg 48%
    23:00 +14°C° 0 mm 4 mps 753 mmHg 48%

    Tomorrow, 27 September, Thursday

    Time Temperature Precipitation Wind Pressure Humidity
    00:00 +14°C° 0 mm 4 mps 753 mmHg 48%
    01:00 +14°C° 0 mm 4 mps 753 mmHg 49%
    02:00 +13°C° 0 mm 4 mps 753 mmHg 50%
    03:00 +13°C° 0 mm 4 mps 753 mmHg 52%
    04:00 +13°C° 0 mm 4 mps 753 mmHg 54%
    05:00 +13°C° 0 mm 4 mps 752 mmHg 55%
    06:00 +13°C° 0 mm 4 mps 752 mmHg 56%
    07:00 +14°C° 0 mm 4 mps 752 mmHg 57%
    08:00 +16°C° 0 mm 5 mps 751 mmHg 52%
    09:00 +19°C° 0 mm 6 mps 751 mmHg 46%
    10:00 +21°C° 0 mm 6 mps 751 mmHg 41%
    11:00 +22°C° 0 mm 7 mps 750 mmHg 38%
    12:00 +23°C° 0 mm 7 mps 749 mmHg 35%
    13:00 +24°C° 0 mm 8 mps 749 mmHg 32%
    14:00 +23°C° 0 mm 7 mps 748 mmHg 33%
    15:00 +23°C° 0 mm 6 mps 748 mmHg 35%
    16:00 +22°C° 0 mm 5 mps 747 mmHg 36%
    17:00 +21°C° 0 mm 5 mps 747 mmHg 40%
    18:00 +19°C° 0 mm 4 mps 747 mmHg 45%
    19:00 +18°C° 0 mm 4 mps 746 mmHg 49%
    20:00 +17°C° 0 mm 4 mps 746 mmHg 56%
    21:00 +15°C° 0 mm 4 mps 746 mmHg 64%
    22:00 +14°C° 0 mm 4 mps 746 mmHg 71%
    23:00 +13°C° 0.1 mm 4 mps 746 mmHg 73%

    Day after tomorrow, 28 September, Friday

    Time Temperature Precipitation Wind Pressure Humidity
    00:00 +12°C° 0.1 mm 4 mps 745 mmHg 75%
    01:00 +12°C° 0.1 mm 4 mps 745 mmHg 76%
    02:00 +11°C° 0 mm 4 mps 745 mmHg 78%
    03:00 +10°C° 0 mm 4 mps 745 mmHg 79%
    04:00 +10°C° 0 mm 4 mps 745 mmHg 80%
    05:00 +10°C° 0 mm 4 mps 745 mmHg 76%
    06:00 +9°C° 0 mm 5 mps 745 mmHg 72%
    07:00 +9°C° 0 mm 5 mps 745 mmHg 68%
    08:00 +10°C° 0.1 mm 6 mps 745 mmHg 62%
    09:00 +10°C° 0.1 mm 7 mps 744 mmHg 57%
    10:00 +11°C° 0.1 mm 8 mps 744 mmHg 52%
    11:00 +11°C° 0 mm 8 mps 744 mmHg 52%
    12:00 +11°C° 0 mm 9 mps 744 mmHg 51%
    13:00 +11°C° 0 mm 9 mps 744 mmHg 51%
    14:00 +11°C° 0 mm 8 mps 745 mmHg 49%
    15:00 +12°C° 0 mm 8 mps 745 mmHg 48%
    16:00 +12°C° 0 mm 7 mps 746 mmHg 46%
    17:00 +11°C° 0 mm 6 mps 746 mmHg 48%
    18:00 +10°C° 0 mm 5 mps 747 mmHg 50%
    19:00 +10°C° 0 mm 4 mps 748 mmHg 52%
    20:00 +10°C° 0 mm 4 mps 748 mmHg 55%
    21:00 +8°C° 0 mm 4 mps 748 mmHg 57%
    22:00 +8°C° 0 mm 4 mps 749 mmHg 60%
    23:00 +7°C° 0 mm 4 mps 749 mmHg 62%

    29 September, Saturday

    Time Temperature Precipitation Wind Pressure Humidity
    00:00 +7°C° 0 mm 4 mps 749 mmHg 63%
    01:00 +7°C° 0 mm 4 mps 749 mmHg 65%
    02:00 +7°C° 0 mm 5 mps 749 mmHg 64%
    03:00 +7°C° 0 mm 6 mps 749 mmHg 63%
    04:00 +7°C° 0 mm 6 mps 749 mmHg 62%
    05:00 +8°C° 0 mm 7 mps 749 mmHg 61%
    06:00 +7°C° 0 mm 8 mps 749 mmHg 59%
    07:00 +9°C° 0 mm 8 mps 749 mmHg 57%
    08:00 +11°C° 0 mm 9 mps 749 mmHg 53%
    09:00 +12°C° 0 mm 9 mps 749 mmHg 49%
    10:00 +14°C° 0 mm 10 mps 749 mmHg 44%
    11:00 +16°C° 0 mm 10 mps 749 mmHg 44%
    12:00 +17°C° 0 mm 10 mps 749 mmHg 44%
    13:00 +18°C° 0 mm 9 mps 749 mmHg 43%
    14:00 +18°C° 0 mm 8 mps 749 mmHg 45%
    15:00 +18°C° 0 mm 7 mps 750 mmHg 47%
    16:00 +19°C° 0 mm 6 mps 750 mmHg 48%
    17:00 +16°C° 0 mm 5 mps 750 mmHg 53%
    18:00 +15°C° 0 mm 4 mps 750 mmHg 58%
    19:00 +14°C° 0 mm 3 mps 751 mmHg 62%
    20:00 +13°C° 0 mm 3 mps 751 mmHg 64%
    21:00 +13°C° 0 mm 3 mps 751 mmHg 65%
    22:00 +13°C° 0 mm 3 mps 751 mmHg 67%
    23:00 +13°C° 0 mm 3 mps 751 mmHg 67%

    30 September, Sunday

    Time Temperature Precipitation Wind Pressure Humidity
    00:00 +13°C° 0 mm 2 mps 751 mmHg 68%
    01:00 +13°C° 0 mm 2 mps 752 mmHg 68%
    02:00 +13°C° 0.1 mm 2 mps 752 mmHg 70%
    03:00 +13°C° 0.1 mm 2 mps 752 mmHg 72%
    04:00 +12°C° 0.1 mm 2 mps 752 mmHg 75%
    05:00 +12°C° 0 mm 2 mps 752 mmHg 75%
    06:00 +12°C° 0 mm 2 mps 752 mmHg 75%
    07:00 +12°C° 0 mm 1 mps 752 mmHg 74%
    08:00 +13°C° 0 mm 2 mps 751 mmHg 70%
    09:00 +15°C° 0 mm 2 mps 751 mmHg 66%
    10:00 +16°C° 0 mm 2 mps 751 mmHg 61%
    11:00 +16°C° 0 mm 3 mps 751 mmHg 59%
    12:00 +17°C° 0 mm 4 mps 751 mmHg 57%
    13:00 +16°C° 0 mm 5 mps 751 mmHg 55%
    14:00 +14°C° 0.1 mm 5 mps 750 mmHg 62%
    15:00 +13°C° 0.1 mm 5 mps 750 mmHg 68%
    16:00 +10°C° 0.1 mm 5 mps 750 mmHg 74%
    17:00 +9°C° 0.2 mm 5 mps 750 mmHg 77%
    18:00 +8°C° 0.2 mm 4 mps 750 mmHg 79%
    19:00 +7°C° 0.2 mm 4 mps 751 mmHg 82%
    20:00 +7°C° 0.1 mm 4 mps 751 mmHg 82%
    21:00 +7°C° 0.1 mm 4 mps 751 mmHg 82%
    22:00 +7°C° 0.1 mm 4 mps 751 mmHg 82%
    23:00 +7°C° 0.1 mm 4 mps 751 mmHg 82%

    1 October, Monday

    Time Temperature Precipitation Wind Pressure Humidity
    00:00 +6°C° 0.1 mm 4 mps 752 mmHg 82%
    01:00 +7°C° 0.1 mm 3 mps 752 mmHg 82%
    02:00 +5°C° 0 mm 3 mps 752 mmHg 84%
    03:00 +5°C° 0 mm 3 mps 752 mmHg 87%
    04:00 +4°C° 0 mm 3 mps 753 mmHg 89%
    05:00 +4°C° 0 mm 3 mps 753 mmHg 87%
    06:00 +4°C° 0 mm 3 mps 753 mmHg 85%
    07:00 +4°C° 0 mm 3 mps 753 mmHg 83%
    08:00 +5°C° 0 mm 3 mps 754 mmHg 73%
    09:00 +7°C° 0 mm 3 mps 754 mmHg 62%
    10:00 +8°C° 0 mm 4 mps 754 mmHg 52%
    11:00 +8°C° 0 mm 4 mps 754 mmHg 49%
    12:00 +10°C° 0 mm 4 mps 754 mmHg 45%
    13:00 +10°C° 0 mm 4 mps 755 mmHg 42%
    14:00 +10°C° 0 mm 4 mps 755 mmHg 43%
    15:00 +8°C° 0 mm 4 mps 755 mmHg 44%
    16:00 +8°C° 0 mm 4 mps 755 mmHg 45%
    17:00 +8°C° 0 mm 3 mps 755 mmHg 48%
    18:00 +7°C° 0 mm 2 mps 755 mmHg 52%
    19:00 +6°C° 0 mm 2 mps 756 mmHg 55%
    20:00 +7°C° 0 mm 1 mps 756 mmHg 56%
    21:00 +6°C° 0 mm 1 mps 756 mmHg 57%
    22:00 +5°C° 0 mm 0 mps 756 mmHg 57%
    23:00 +6°C° 0 mm 1 mps 756 mmHg 57%
    Show more